Location: Ashtead
(51.3000°N, 0.3000°W)
Time: 05:19:44
(UTC+00:00)

Cosmos 1939 Rocket - Pass Details

Date: 26 September 2023
Orbit: 521 x 565 km, 97.4° (Epoch: 29 November)

Event Time Altitude Azimuth Distance (km) Brightness Sun altitude
Rises 04:37:32 0° 19° (NNE) 2,668 6.8 -12.5°
Reaches altitude 10° 04:39:45 10° 27° (NNE) 1,777 6.0 -12.2°
Maximum altitude 04:43:22 39° 98° (E) 803 4.3 -11.6°
Drops below altitude 10° 04:46:59 10° 168° (SSE) 1,782 5.4 -11.1°
Sets 04:49:12 0° 176° (S) 2,675 6.2 -10.8°
